"2010-09-29 00:00:00",201901,2.134,205.5,2.845,0.064,22.67,110.7064,26.71,27.58,12.06,0,111.4,13.06,27.56,167.5
"2010-09-29 00:00:30",201902,1.709,205.5,3.908,0.179,22.66,110.7064,26.71,27.57,12.07,0,111.4,13.06,27.56,167.5
"2010-09-29 00:01:00",201903,1.869,191.1,6.778,0.397,22.58,110.7062,26.71,27.57,12.09,0,111.4,13.06,27.55,153.1
"2010-09-29 00:01:30",201904,2.254,186.6,2.265,0.158,22.66,110.7068,26.71,27.57,12.1,0,111.4,13.06,27.56,148.6
"2010-09-29 00:02:00",201905,2.387,189.2,2.371,0.19,22.67,110.7038,26.7,27.55,12.1,0,111.4,13.06,27.55,151.2
"2010-09-29 00:02:30",201906,1.974,191.5,2.419,0.18,22.65,110.7013,26.7,27.56,12.09,0,111.4,13.06,27.54,153.5
"2010-09-29 00:03:00",201907,1.971,194.2,4.133,0.101,22.68,110.6999,26.69,27.57,12.1,0,111.4,13.06,27.54,156.2
"2010-09-29 00:03:30",201908,2.051,192.3,3.048,0.141,22.66,110.6999,26.69,27.55,12.08,0,111.4,13.06,27.54,154.3
"2010-09-29 00:04:00",201909,2.339,185.6,2.009,0.216,22.7,110.6999,26.69,27.56,12.08,0,111.4,13.06,27.54,147.6
"2010-09-29 00:04:30",201910,1.771,193.6,4.59,0.228,22.62,110.6999,26.69,27.55,12.08,0,111.4,13.05,27.54,155.6
"2010-09-29 00:05:00",201911,1.962,205.2,2.4,0.127,22.65,110.6999,26.69,27.55,12.06,0,111.4,13.05,27.54,167.2
"2010-09-29 00:05:30",201912,2.136,208.6,2.943,0.153,22.73,110.6999,26.69,27.54,12,0,111.4,13.05,27.54,170.6
"2010-09-29 00:06:00",201913,2.251,212.1,3.264,0.084,22.72,110.6999,26.69,27.55,11.95,0,111.4,13.05,27.54,174.1
"2010-09-29 00:06:30",201914,2.383,211.6,2.929,0.098,22.67,110.6999,26.69,27.54,11.96,0,111.4,13.06,27.54,173.6
"2010-09-29 00:07:00",201915,2.454,216.5,2.495,0.109,22.73,110.6999,26.69,27.55,11.95,0,111.4,13.06,27.54,178.5
"2010-09-29 00:07:30",201916,2.395,217.1,5.905,0.105,22.75,110.6999,26.69,27.54,12,0,111.4,13.06,27.54,179.1
"2010-09-29 00:08:00",201917,2.346,213.8,3.003,0.165,22.75,110.6999,26.69,27.56,11.92,0,111.4,13.06,27.54,175.8
"2010-09-29 00:08:30",201918,2.528,210.1,3.331,0.123,22.75,110.6999,26.69,27.55,11.88,0,111.4,13.06,27.54,172.1
"2010-09-29 00:09:00",201919,2.683,204.8,3.972,0.107,22.77,110.6999,26.69,27.55,11.92,0,111.4,13.06,27.54,166.8
"2010-09-29 00:09:30",201920,2.679,210.2,2.624,0.136,22.78,110.6999,26.69,27.55,11.89,0,111.4,13.06,27.54,172.2
"2010-09-29 00:10:00",201921,2.608,208.7,2.418,0.065,22.83,110.6983,26.69,27.55,11.94,0,111.4,13.06,27.53,170.7
"2010-09-29 00:10:30",201922,2.617,206.9,1.291,0.063,22.79,110.6974,26.69,27.55,11.94,0,111.4,13.06,27.53,168.9
"2010-09-29 00:11:00",201923,2.761,207.9,2.182,0.143,22.82,110.6945,26.68,27.54,11.93,0,111.4,13.06,27.52,169.9
"2010-09-29 00:11:30",201924,2.979,205.6,1.466,0.059,22.77,110.6951,26.68,27.56,11.89,0,111.4,13.06,27.53,167.6
"2010-09-29 00:12:00",201925,2.919,206.7,1.397,0.058,22.79,110.6999,26.69,27.54,11.86,0,111.4,13.06,27.54,168.7
"2010-09-29 00:12:30",201926,2.986,209,1.399,0.116,22.84,110.6987,26.69,27.55,11.79,0,111.4,13.06,27.54,171.0
"2010-09-29 00:13:00",201927,3.056,208.1,1.199,0.058,22.81,110.6999,26.69,27.55,11.71,0,111.4,13.06,27.54,170.1
"2010-09-29 00:13:30",201928,2.9,207.6,0.99,0.07,22.83,110.7026,26.7,27.54,11.67,0,111.4,13.06,27.55,169.6
"2010-09-29 00:14:00",201929,2.884,202.2,2.375,0.061,22.79,110.6999,26.69,27.55,11.76,0,111.4,13.06,27.54,164.2
"2010-09-29 00:14:30",201930,2.742,200.5,1.703,0.06,22.87,110.6991,26.69,27.55,11.87,0,111.4,13.06,27.54,162.5
"2010-09-29 00:15:00",201931,2.802,202.1,1.274,0.062,22.85,110.6997,26.69,27.55,11.84,0,111.4,13.06,27.54,164.1
"2010-09-29 00:15:30",201932,2.775,203.5,1.575,0.078,22.89,110.698,26.69,27.55,11.81,0,111.4,13.06,27.53,165.5
"2010-09-29 00:16:00",201933,2.649,205,2.395,0.125,22.94,110.6996,26.69,27.56,11.83,0,111.4,13.06,27.54,167.0
"2010-09-29 00:16:30",201934,2.51,201.2,0.825,0.061,22.92,110.704,26.7,27.55,11.75,0,111.4,13.06,27.55,163.2
"2010-09-29 00:17:00",201935,2.578,202.9,1.94,0.063,22.99,110.7063,26.71,27.56,11.72,0,111.4,13.06,27.55,164.9
"2010-09-29 00:17:30",201936,2.58,205.1,2.812,0.055,22.97,110.7111,26.72,27.55,11.74,0,111.4,13.06,27.57,167.1
"2010-09-29 00:18:00",201937,2.455,211.8,2.542,0.076,22.85,110.7124,26.73,27.55,11.78,0,111.4,13.06,27.57,173.8
"2010-09-29 00:18:30",201938,2.684,210.6,1.163,0.068,23.01,110.7153,26.73,27.57,11.71,0,111.4,13.06,27.58,172.6
"2010-09-29 00:19:00",201939,2.461,208.8,0.788,0.093,22.9,110.7194,26.74,27.56,11.71,0,111.4,13.06,27.59,170.8
"2010-09-29 00:19:30",201940,2.334,208.5,1.08,0.077,22.87,110.7166,26.74,27.59,11.75,0,111.4,13.06,27.58,170.5
"2010-09-29 00:20:00",201941,2.289,209.6,0.646,0.046,22.91,110.7143,26.73,27.56,11.73,0,111.4,13.06,27.58,171.6
"2010-09-29 00:20:30",201942,2.276,209.7,0.729,0.041,22.95,110.7132,26.73,27.57,11.66,0,111.4,13.06,27.57,171.7
"2010-09-29 00:21:00",201943,2.184,210.6,1.628,0.052,23.01,110.7135,26.73,27.56,11.66,0,111.4,13.06,27.57,172.6
"2010-09-29 00:21:30",201944,2.14,212.1,0.923,0.03,23.02,110.7116,26.72,27.58,11.6,0,111.4,13.06,27.57,174.1
"2010-09-29 00:22:00",201945,2.106,212.8,0.79,0.04,23.06,110.7128,26.73,27.57,11.6,0,111.4,13.06,27.57,174.8
"2010-09-29 00:22:30",201946,2.3,213.9,0.954,0.032,22.94,110.7132,26.73,27.57,11.55,0,111.4,13.06,27.57,175.9
"2010-09-29 00:23:00",201947,2.365,211.3,2.461,0.048,22.88,110.7099,26.72,27.57,11.52,0,111.4,13.06,27.56,173.3
"2010-09-29 00:23:30",201948,2.283,209.8,0.897,0.054,22.94,110.7135,26.73,27.58,11.51,0,111.4,13.06,27.57,171.8
"2010-09-29 00:24:00",201949,2.214,209.6,1.743,0.045,23.02,110.7147,26.73,27.57,11.5,0,111.4,13.07,27.58,171.6
"2010-09-29 00:24:30",201950,2.189,210.7,0.853,0.043,23.08,110.7152,26.73,27.57,11.47,0,111.4,13.06,27.58,172.7
"2010-09-29 00:25:00",201951,2.159,213,0.672,0.048,23.1,110.7155,26.73,27.58,11.48,0,111.3,13.07,27.58,175.0
"2010-09-29 00:25:30",201952,2.2,214.2,1.687,0.048,23.05,110.7144,26.73,27.58,11.5,0,111.3,13.07,27.58,176.2
"2010-09-29 00:26:00",201953,2.266,207.9,1.859,0.031,22.97,110.7122,26.72,27.59,11.57,0,111.3,13.07,27.57,169.9
"2010-09-29 00:26:30",201954,2.231,204.8,1.879,0.048,22.93,110.708,26.71,27.59,11.61,0,111.3,13.07,27.56,166.8
"2010-09-29 00:27:00",201955,2.293,202,0.838,0.05,22.93,110.7037,26.7,27.59,11.61,0,111.3,13.07,27.55,164.0
"2010-09-29 00:27:30",201956,2.257,202.5,1.466,0.055,22.94,110.7035,26.7,27.56,11.62,0,111.3,13.07,27.55,164.5
"2010-09-29 00:28:00",201957,2.291,201.6,2.281,0.069,22.93,110.7023,26.7,27.55,11.64,0,111.3,13.07,27.54,163.6
"2010-09-29 00:28:30",201958,2.255,197.2,1.361,0.037,22.96,110.7007,26.7,27.55,11.63,0,111.3,13.07,27.54,159.2
"2010-09-29 00:29:00",201959,2.275,200.1,1.809,0.064,22.96,110.6973,26.69,27.56,11.64,0,111.3,13.07,27.53,162.1
"2010-09-29 00:29:30",201960,2.251,200.2,1.489,0.035,22.98,110.6936,26.68,27.54,11.64,0,111.3,13.07,27.52,162.2
"2010-09-29 00:30:00",201961,2.249,200.4,1.431,0.034,22.99,110.6892,26.67,27.54,11.65,0,111.3,13.07,27.51,162.4
"2010-09-29 00:30:30",201962,2.152,203.4,0.765,0.019,23.09,110.6813,26.65,27.53,11.62,0,111.3,13.08,27.49,165.4
"2010-09-29 00:31:00",201963,2.174,204.8,0.64,0.036,23.1,110.6791,26.64,27.53,11.61,0,111.3,13.08,27.48,166.8
"2010-09-29 00:31:30",201964,2.22,205.7,0.745,0.043,23.11,110.6788,26.64,27.54,11.62,0,111.3,13.08,27.48,167.7
"2010-09-29 00:32:00",201965,2.289,205.6,0.597,0.031,23.11,110.6803,26.64,27.55,11.44,0,111.3,13.08,27.49,167.6
"2010-09-29 00:32:30",201966,2.325,207.5,0.652,0.04,23.12,110.6895,26.67,27.55,11.4,0,111.3,13.08,27.51,169.5
"2010-09-29 00:33:00",201967,2.359,208.3,0.631,0.045,23.12,110.6965,26.68,27.53,11.43,0,111.3,13.08,27.53,170.3
"2010-09-29 00:33:30",201968,2.326,209.3,1.086,0.046,23.16,110.7035,26.7,27.55,11.47,0,111.3,13.08,27.55,171.3
"2010-09-29 00:34:00",201969,2.345,209.6,0.785,0.038,23.14,110.7076,26.71,27.55,11.5,0,111.3,13.08,27.56,171.6
"2010-09-29 00:34:30",201970,2.317,210.2,1.132,0.057,23.18,110.705,26.71,27.56,11.61,0,111.3,13.08,27.55,172.2
"2010-09-29 00:35:00",201971,2.335,212.4,0.896,0.053,23.24,110.6987,26.69,27.56,11.64,0,111.3,13.08,27.54,174.4
"2010-09-29 00:35:30",201972,2.474,209.8,1.301,0.075,23.25,110.6973,26.69,27.55,11.59,0,111.3,13.07,27.53,171.8
"2010-09-29 00:36:00",201973,2.463,211.3,1.22,0.047,23.28,110.6962,26.68,27.53,11.59,0,111.3,13.07,27.53,173.3
"2010-09-29 00:36:30",201974,2.428,211.8,0.735,0.038,23.34,110.6974,26.69,27.54,11.59,0,111.3,13.07,27.53,173.8
"2010-09-29 00:37:00",201975,2.403,211.2,1.114,0.058,23.39,110.6978,26.69,27.52,11.57,0,111.3,13.07,27.53,173.2
"2010-09-29 00:37:30",201976,2.27,211.8,0.724,0.053,23.47,110.6975,26.69,27.52,11.56,0,111.3,13.07,27.53,173.8
"2010-09-29 00:38:00",201977,2.237,210.3,1.332,0.03,23.48,110.6927,26.67,27.5,11.6,0,111.3,13.07,27.52,172.3
"2010-09-29 00:38:30",201978,2.224,208.2,0.645,0.04,23.5,110.6792,26.64,27.51,11.71,0,111.3,13.07,27.48,170.2
"2010-09-29 00:39:00",201979,2.173,208.6,1.379,0.038,23.49,110.6759,26.63,27.5,11.69,0,111.3,13.07,27.48,170.6
"2010-09-29 00:39:30",201980,2.128,210.9,1.38,0.051,23.52,110.6778,26.64,27.5,11.67,0,111.3,13.07,27.48,172.9
"2010-09-29 00:40:00",201981,2.093,212,0.637,0.034,23.52,110.677,26.63,27.5,11.67,0,111.3,13.07,27.48,174.0
"2010-09-29 00:40:30",201982,2.051,210.8,0.995,0.035,23.58,110.6737,26.63,27.49,11.64,0,111.3,13.08,27.47,172.8
"2010-09-29 00:41:00",201983,2.031,210,0.618,0.048,23.61,110.6734,26.63,27.48,11.64,0,111.3,13.08,27.47,172.0
"2010-09-29 00:41:30",201984,2.08,209.7,0.964,0.019,23.63,110.6734,26.63,27.5,11.6,0,111.3,13.08,27.47,171.7
"2010-09-29 00:42:00",201985,2.043,208,0.984,0.083,23.59,110.6734,26.63,27.49,11.55,0,111.3,13.08,27.47,170.0
"2010-09-29 00:42:30",201986,2.034,207.7,0.69,0.045,23.62,110.6734,26.63,27.49,11.54,0,111.3,13.08,27.47,169.7
"2010-09-29 00:43:00",201987,2.085,206.5,0.609,0.042,23.6,110.6734,26.63,27.49,11.46,0,111.3,13.08,27.47,168.5
"2010-09-29 00:43:30",201988,2.102,209.5,1.195,0.09,23.63,110.6734,26.63,27.5,11.47,0,111.3,13.08,27.47,171.5
"2010-09-29 00:44:00",201989,2.126,213.1,0.653,0.04,23.66,110.6734,26.63,27.5,11.45,0,111.3,13.09,27.47,175.1
"2010-09-29 00:44:30",201990,2.158,213.3,0.943,0.014,23.64,110.6734,26.63,27.49,11.44,0,111.3,13.08,27.47,175.3
"2010-09-29 00:45:00",201991,2.181,212.4,0.852,0.055,23.61,110.6734,26.63,27.5,11.45,0,111.3,13.09,27.47,174.4
"2010-09-29 00:45:30",201992,2.167,211.4,1.88,0.052,23.64,110.6743,26.63,27.5,11.46,0,111.3,13.09,27.47,173.4
"2010-09-29 00:46:00",201993,2.163,212.1,1.438,0.052,23.62,110.6759,26.63,27.5,11.46,0,111.3,13.09,27.48,174.1
"2010-09-29 00:46:30",201994,2.147,209.3,0.69,0.034,23.59,110.6833,26.65,27.5,11.48,0,111.2,13.09,27.50,171.3
"2010-09-29 00:47:00",201995,2.159,208.5,0.826,0.027,23.59,110.688,26.66,27.51,11.48,0,111.2,13.09,27.51,170.5
"2010-09-29 00:47:30",201996,2.144,209.2,0.796,0.045,23.59,110.6927,26.67,27.49,11.5,0,111.2,13.09,27.52,171.2
"2010-09-29 00:48:00",201997,2.134,208,1.257,0.034,23.6,110.6943,26.68,27.51,11.52,0,111.2,13.09,27.52,170.0
"2010-09-29 00:48:30",201998,2.12,204,1.229,0.057,23.52,110.6878,26.66,27.51,11.57,0,111.2,13.09,27.51,166.0
"2010-09-29 00:49:00",201999,2.233,205.4,1.726,0.041,23.51,110.6769,26.63,27.5,11.59,0,111.2,13.09,27.48,167.4
"2010-09-29 00:49:30",202000,2.257,205.7,1.388,0.059,23.5,110.6747,26.63,27.49,11.59,0,111.2,13.09,27.47,167.7
"2010-09-29 00:50:00",202001,2.292,206.5,0.723,0.038,23.48,110.6717,26.62,27.49,11.56,0,111.2,13.09,27.47,168.5
"2010-09-29 00:50:30",202002,2.311,205.8,0.862,0.04,23.49,110.673,26.62,27.49,11.56,0,111.2,13.09,27.47,167.8
"2010-09-29 00:51:00",202003,2.244,202.4,1.304,0.031,23.48,110.6758,26.63,27.48,11.6,0,111.2,13.09,27.48,164.4
"2010-09-29 00:51:30",202004,2.216,199.8,0.773,0.044,23.48,110.6733,26.63,27.46,11.68,0,111.2,13.09,27.47,161.8
"2010-09-29 00:52:00",202005,2.219,197.2,0.995,0.021,23.49,110.6638,26.6,27.46,11.78,0,111.2,13.09,27.45,159.2
"2010-09-29 00:52:30",202006,2.231,194.8,0.645,0.03,23.48,110.654,26.58,27.45,11.8,0,111.2,13.09,27.42,156.8
"2010-09-29 00:53:00",202007,2.241,194.5,0.452,0.031,23.51,110.6517,26.57,27.45,11.79,0,111.2,13.09,27.41,156.5
"2010-09-29 00:53:30",202008,2.167,191.8,1.938,0.042,23.54,110.6481,26.56,27.45,11.79,0,111.2,13.09,27.40,153.8
"2010-09-29 00:54:00",202009,2.069,188.3,0.882,0.036,23.51,110.6444,26.55,27.44,11.82,0,111.2,13.09,27.40,150.3
"2010-09-29 00:54:30",202010,2.062,188.9,0.53,0.032,23.52,110.6436,26.55,27.44,11.81,0,111.2,13.09,27.39,150.9
"2010-09-29 00:55:00",202011,2.021,188.2,0.265,0.045,23.53,110.6436,26.55,27.43,11.88,0,111.2,13.09,27.39,150.2
"2010-09-29 00:55:30",202012,2.127,190.2,0.911,0.039,23.54,110.6436,26.55,27.42,11.87,0,111.2,13.09,27.39,152.2
"2010-09-29 00:56:00",202013,2.117,191.5,0.598,0.037,23.54,110.6455,26.55,27.41,11.86,0,111.2,13.09,27.40,153.5
"2010-09-29 00:56:30",202014,2.062,192.7,0.728,0.026,23.56,110.6474,26.56,27.42,11.88,0,111.2,13.09,27.40,154.7
"2010-09-29 00:57:00",202015,2.064,195.5,1.099,0.061,23.55,110.6469,26.56,27.41,11.88,0,111.2,13.09,27.40,157.5
"2010-09-29 00:57:30",202016,2.096,196.7,0.618,0.031,23.54,110.6457,26.55,27.42,11.87,0,111.2,13.09,27.40,158.7
"2010-09-29 00:58:00",202017,2.071,197.8,0.321,0.042,23.56,110.6406,26.54,27.41,11.85,0,111.2,13.1,27.39,159.8
"2010-09-29 00:58:30",202018,2.032,197.2,1.592,0.032,23.53,110.64,26.54,27.4,11.83,0,111.2,13.1,27.38,159.2
"2010-09-29 00:59:00",202019,1.973,196.3,0.77,0.025,23.6,110.6391,26.54,27.4,11.84,0,111.2,13.1,27.38,158.3
"2010-09-29 00:59:30",202020,2.013,196.8,0.628,0.032,23.54,110.6438,26.55,27.4,11.8,0,111.2,13.1,27.39,158.8
"2010-09-29 01:00:00",202021,1.969,198.4,0.812,0.026,23.58,110.6451,26.55,27.4,11.8,0,111.2,13.1,27.40,160.4
"2010-09-29 01:00:30",202022,1.949,199.6,0.806,0.023,23.55,110.6404,26.54,27.41,11.85,0,111.2,13.1,27.38,161.6
"2010-09-29 01:01:00",202023,1.983,200.8,0.595,0.04,23.52,110.6376,26.53,27.4,11.86,0,111.2,13.1,27.38,162.8
"2010-09-29 01:01:30",202024,2.008,199.3,0.612,0.043,23.56,110.6382,26.53,27.39,11.88,0,111.2,13.1,27.38,161.3
"2010-09-29 01:02:00",202025,1.989,198.6,0.643,0.018,23.61,110.6394,26.54,27.39,11.88,0,111.2,13.1,27.38,160.6
"2010-09-29 01:02:30",202026,2.076,197.9,0.646,0.059,23.56,110.6441,26.55,27.4,11.89,0,111.2,13.1,27.39,159.9
"2010-09-29 01:03:00",202027,2.147,198,0.67,0,23.49,110.6463,26.56,27.38,11.89,0,111.2,13.1,27.40,160.0
"2010-09-29 01:03:30",202028,2.147,199.1,0.364,0,23.5,110.6469,26.56,27.39,11.89,0,111.1,13.11,27.40,161.1
"2010-09-29 01:04:00",202029,2.137,200.4,0.67,0.026,23.52,110.6469,26.56,27.39,11.89,0,111.2,13.11,27.40,162.4
"2010-09-29 01:04:30",202030,2.144,199.2,0.83,0.023,23.49,110.6463,26.56,27.39,11.85,0,111.1,13.11,27.40,161.2
"2010-09-29 01:05:00",202031,2.117,196.3,0.659,0.042,23.52,110.6466,26.56,27.39,11.87,0,111.1,13.11,27.40,158.3
"2010-09-29 01:05:30",202032,2.156,196.5,0.574,0.058,23.48,110.6452,26.55,27.38,11.84,0,111.1,13.11,27.40,158.5
"2010-09-29 01:06:00",202033,2.187,193.5,1.707,0.041,23.51,110.6444,26.55,27.39,11.8,0,111.1,13.11,27.40,155.5
"2010-09-29 01:06:30",202034,2.132,191.8,0.746,0.03,23.49,110.6438,26.55,27.38,11.82,0,111.1,13.11,27.39,153.8
"2010-09-29 01:07:00",202035,2.009,192.3,0.805,0.042,23.5,110.634,26.52,27.38,11.85,0,111.1,13.11,27.37,154.3
"2010-09-29 01:07:30",202036,2.09,192.4,0.657,0.046,23.55,110.6233,26.5,27.38,11.82,0,111.1,13.11,27.34,154.4
"2010-09-29 01:08:00",202037,2.122,189.9,0.994,0.036,23.46,110.6202,26.49,27.38,11.83,0,111.1,13.11,27.33,151.9
"2010-09-29 01:08:30",202038,2.022,189,0.607,0.039,23.47,110.6154,26.48,27.36,11.96,0,111.1,13.11,27.32,151.0
"2010-09-29 01:09:00",202039,1.986,188.2,0.399,0.029,23.47,110.6141,26.47,27.36,11.98,0,111.1,13.11,27.32,150.2
"2010-09-29 01:09:30",202040,2.041,188.1,0.258,0.037,23.46,110.6154,26.48,27.38,12.06,0,111.1,13.11,27.32,150.1
"2010-09-29 01:10:00",202041,2.149,188.1,0.543,0.02,23.48,110.6176,26.48,27.37,12.07,0,111.1,13.11,27.33,150.1
"2010-09-29 01:10:30",202042,2.064,189.5,0.955,0.067,23.49,110.621,26.49,27.35,12.05,0,111.1,13.11,27.33,151.5
"2010-09-29 01:11:00",202043,2.037,189.3,0.528,0.045,23.49,110.6269,26.51,27.36,12.02,0,111.1,13.11,27.35,151.3
"2010-09-29 01:11:30",202044,2.082,188.3,0.99,0.018,23.5,110.6306,26.52,27.36,12.09,0,111.1,13.11,27.36,150.3
"2010-09-29 01:12:00",202045,2.031,187.9,0.615,0.033,23.48,110.6317,26.52,27.36,12.15,0,111.1,13.12,27.36,149.9
"2010-09-29 01:12:30",202046,2.015,188.9,0.768,0.013,23.5,110.6303,26.51,27.36,12.16,0,111.1,13.12,27.36,150.9
"2010-09-29 01:13:00",202047,2.059,191,0.772,0.033,23.52,110.6306,26.52,27.37,12.11,0,111.1,13.12,27.36,153.0
"2010-09-29 01:13:30",202048,2.08,192,0.265,0.014,23.54,110.6285,26.51,27.35,12.09,0,111.1,13.12,27.35,154.0
"2010-09-29 01:14:00",202049,2.102,193.2,0.667,0.031,23.6,110.6299,26.51,27.34,12.09,0,111.1,13.12,27.36,155.2
"2010-09-29 01:14:30",202050,2.147,194.4,0.343,0.018,23.6,110.6288,26.51,27.36,12.02,0,111.1,13.11,27.35,156.4
"2010-09-29 01:15:00",202051,2.133,195.5,0.811,0.041,23.54,110.6319,26.52,27.35,11.93,0,111.1,13.12,27.36,157.5
"2010-09-29 01:15:30",202052,2.107,197.2,1.299,0.049,23.56,110.6379,26.53,27.37,11.93,0,111.1,13.12,27.38,159.2
"2010-09-29 01:16:00",202053,2.114,199.7,0.651,0.037,23.62,110.6417,26.54,27.37,11.85,0,111.1,13.12,27.39,161.7
"2010-09-29 01:16:30",202054,2.119,199.7,0.953,0.037,23.6,110.6462,26.56,27.38,11.86,0,111.1,13.12,27.40,161.7
"2010-09-29 01:17:00",202055,2.097,201.8,0.785,0.024,23.52,110.6486,26.56,27.37,11.86,0,111.1,13.12,27.41,163.8
"2010-09-29 01:17:30",202056,2.157,202.3,1.111,0.002,23.54,110.6499,26.56,27.37,11.83,0,111.1,13.12,27.41,164.3
"2010-09-29 01:18:00",202057,2.184,202.7,0.509,0.033,23.52,110.6505,26.57,27.38,11.85,0,111.1,13.12,27.41,164.7
"2010-09-29 01:18:30",202058,2.162,202.9,0.034,0.019,23.56,110.6505,26.57,27.38,11.83,0,111.1,13.12,27.41,164.9
"2010-09-29 01:19:00",202059,2.158,203,0.324,0.018,23.54,110.6505,26.57,27.39,11.82,0,111.1,13.12,27.41,165.0
"2010-09-29 01:19:30",202060,2.158,202.6,0.893,0.012,23.56,110.6505,26.57,27.41,11.76,0,111.1,13.12,27.41,164.6
"2010-09-29 01:20:00",202061,2.156,202.6,0.565,0.003,23.57,110.6505,26.57,27.4,11.76,0,111.1,13.12,27.41,164.6
"2010-09-29 01:20:30",202062,2.162,203.1,0.479,0.027,23.56,110.6505,26.57,27.4,11.79,0,111.1,13.13,27.41,165.1
"2010-09-29 01:21:00",202063,2.223,203.6,0.559,0.002,23.5,110.6505,26.57,27.42,11.8,0,111.1,13.13,27.41,165.6
"2010-09-29 01:21:30",202064,2.224,204.9,0.426,0.011,23.51,110.6505,26.57,27.41,11.85,0,111.1,13.13,27.41,166.9
"2010-09-29 01:22:00",202065,2.231,205.9,0.45,0.022,23.56,110.6505,26.57,27.42,11.87,0,111.1,13.13,27.41,167.9
"2010-09-29 01:22:30",202066,2.182,206.2,0.636,0.037,23.62,110.6505,26.57,27.42,11.88,0,111.1,13.13,27.41,168.2
"2010-09-29 01:23:00",202067,2.306,206,0.575,0.05,23.63,110.6505,26.57,27.43,11.75,0,111.1,13.13,27.41,168.0
"2010-09-29 01:23:30",202068,2.321,205,1.011,0.055,23.61,110.6505,26.57,27.42,11.62,0,111.1,13.13,27.41,167.0
"2010-09-29 01:24:00",202069,2.357,202.5,1.861,0.068,23.6,110.6505,26.57,27.44,11.58,0,111.1,13.13,27.41,164.5
"2010-09-29 01:24:30",202070,2.288,204.1,0.785,0.034,23.61,110.6505,26.57,27.45,11.54,0,111.1,13.13,27.41,166.1
"2010-09-29 01:25:00",202071,2.347,203,0.812,0.042,23.57,110.6522,26.57,27.45,11.5,0,111.1,13.13,27.42,165.0
"2010-09-29 01:25:30",202072,2.285,204.9,0.981,0.047,23.63,110.6545,26.58,27.46,11.59,0,111.1,13.13,27.42,166.9
"2010-09-29 01:26:00",202073,2.335,204,1.083,0.033,23.57,110.6541,26.58,27.45,11.6,0,111.1,13.13,27.42,166.0
"2010-09-29 01:26:30",202074,2.264,204.9,1.111,0.027,23.57,110.6598,26.59,27.46,11.62,0,111.1,13.12,27.43,166.9
"2010-09-29 01:27:00",202075,2.326,204.5,1.146,0.051,23.57,110.6632,26.6,27.47,11.68,0,111.1,13.12,27.44,166.5
"2010-09-29 01:27:30",202076,2.284,202,0.704,0.045,23.52,110.6635,26.6,27.46,11.62,0,111.1,13.12,27.44,164.0
"2010-09-29 01:28:00",202077,2.244,202.3,0.762,0.04,23.55,110.666,26.61,27.45,11.61,0,111.1,13.12,27.45,164.3
"2010-09-29 01:28:30",202078,2.243,201.5,0.548,0.049,23.56,110.6701,26.62,27.44,11.54,0,111.1,13.12,27.46,163.5
"2010-09-29 01:29:00",202079,2.24,202.9,0.961,0.025,23.53,110.6735,26.63,27.45,11.55,0,111.1,13.12,27.47,164.9
"2010-09-29 01:29:30",202080,2.249,201.7,1.056,0.049,23.53,110.6763,26.63,27.46,11.52,0,111.1,13.12,27.48,163.7
"2010-09-29 01:30:00",202081,2.362,199.3,1.694,0.041,23.6,110.6769,26.63,27.47,11.44,0,111.1,13.12,27.48,161.3
"2010-09-29 01:30:30",202082,2.465,200,2.342,0.094,23.68,110.6781,26.64,27.47,11.37,0,111.1,13.12,27.48,162.0
"2010-09-29 01:31:00",202083,2.664,198.9,1.915,0.06,23.73,110.6785,26.64,27.47,11.46,0,111.1,13.12,27.48,160.9
"2010-09-29 01:31:30",202084,2.611,198.3,1.091,0.072,23.72,110.681,26.64,27.48,11.5,0,111.1,13.13,27.49,160.3
"2010-09-29 01:32:00",202085,2.449,195.7,1.882,0.072,23.7,110.6846,26.65,27.5,11.41,0,111.1,13.13,27.50,157.7
"2010-09-29 01:32:30",202086,2.318,199.2,1.575,0.076,23.58,110.6834,26.65,27.5,11.37,0,111.1,13.13,27.50,161.2
"2010-09-29 01:33:00",202087,2.312,198.5,2.336,0.05,23.58,110.6846,26.65,27.5,11.38,0,111.1,13.13,27.50,160.5
"2010-09-29 01:33:30",202088,2.265,196.6,1.933,0.064,23.57,110.6821,26.65,27.51,11.37,0,111.1,13.13,27.49,158.6
"2010-09-29 01:34:00",202089,2.485,195.4,2.068,0.091,23.7,110.6828,26.65,27.5,11.54,0,111.1,13.13,27.49,157.4
"2010-09-29 01:34:30",202090,2.67,194.2,0.815,0.073,23.74,110.6847,26.65,27.5,11.62,0,111.1,13.13,27.50,156.2
"2010-09-29 01:35:00",202091,2.543,193.4,1.037,0.082,23.75,110.6847,26.65,27.5,11.64,0,111.1,13.13,27.50,155.4
"2010-09-29 01:35:30",202092,2.592,192.6,1.224,0.035,23.79,110.6856,26.66,27.49,11.63,0,111.1,13.13,27.50,154.6
"2010-09-29 01:36:00",202093,2.565,193.6,0.797,0.048,23.76,110.6872,26.66,27.5,11.64,0,111.1,13.13,27.51,155.6
"2010-09-29 01:36:30",202094,2.588,191.7,0.703,0.027,23.74,110.6872,26.66,27.5,11.61,0,111.1,13.13,27.51,153.7
"2010-09-29 01:37:00",202095,2.539,192.8,0.816,0.046,23.75,110.6878,26.66,27.51,11.59,0,111.1,13.13,27.51,154.8
"2010-09-29 01:37:30",202096,2.494,193.3,0.782,0.041,23.74,110.6878,26.66,27.51,11.59,0,111.1,13.13,27.51,155.3
"2010-09-29 01:38:00",202097,2.635,191.8,1.271,0.088,23.72,110.6878,26.66,27.5,11.66,0,111.1,13.13,27.51,153.8
"2010-09-29 01:38:30",202098,2.689,191.4,1.083,0.055,23.72,110.6878,26.66,27.5,11.68,0,111.1,13.13,27.51,153.4
"2010-09-29 01:39:00",202099,2.618,191.9,1.448,0.037,23.74,110.6878,26.66,27.49,11.65,0,111.1,13.13,27.51,153.9
"2010-09-29 01:39:30",202100,2.699,191,0.86,0.041,23.67,110.6878,26.66,27.5,11.72,0,111.1,13.13,27.51,153.0
"2010-09-29 01:40:00",202101,2.764,190.6,1.165,0.057,23.68,110.6878,26.66,27.5,11.7,0,111.1,13.14,27.51,152.6
"2010-09-29 01:40:30",202102,2.748,191.9,0.691,0.044,23.64,110.6878,26.66,27.49,11.7,0,111.1,13.14,27.51,153.9
"2010-09-29 01:41:00",202103,2.766,191.7,0.602,0.028,23.61,110.6875,26.66,27.49,11.67,0,111.1,13.14,27.51,153.7
"2010-09-29 01:41:30",202104,2.784,192.1,0.53,0.031,23.62,110.6869,26.66,27.49,11.7,0,111.1,13.14,27.50,154.1
"2010-09-29 01:42:00",202105,2.815,193,1.229,0.073,23.62,110.6833,26.65,27.49,11.72,0,111.1,13.14,27.50,155.0
"2010-09-29 01:42:30",202106,3.032,193.4,1.754,0.084,23.7,110.6836,26.65,27.49,11.71,0,111.1,13.14,27.50,155.4
"2010-09-29 01:43:00",202107,3.088,195.3,1.137,0.061,23.67,110.685,26.66,27.48,11.71,0,111.1,13.14,27.50,157.3
"2010-09-29 01:43:30",202108,2.947,196.1,1.441,0.14,23.58,110.6819,26.65,27.48,11.69,0,111.1,13.13,27.49,158.1
"2010-09-29 01:44:00",202109,2.816,194,1.581,0.059,23.61,110.6726,26.62,27.47,11.68,0,111.1,13.13,27.47,156.0
"2010-09-29 01:44:30",202110,3.056,194.4,1.445,0.118,23.66,110.6687,26.61,27.49,11.7,0,111.1,13.13,27.46,156.4
"2010-09-29 01:45:00",202111,3.099,194.9,1.216,0.07,23.66,110.6667,26.61,27.49,11.71,0,111.1,13.13,27.45,156.9
"2010-09-29 01:45:30",202112,2.947,194.5,1.051,0.076,23.6,110.665,26.6,27.48,11.68,0,111.1,13.13,27.45,156.5
"2010-09-29 01:46:00",202113,2.982,193.7,1.226,0.089,23.65,110.6634,26.6,27.47,11.69,0,111.1,13.13,27.44,155.7
"2010-09-29 01:46:30",202114,3.018,194.2,0.802,0.08,23.63,110.6625,26.6,27.47,11.72,0,111.1,13.13,27.44,156.2
"2010-09-29 01:47:00",202115,3.001,195,1.314,0.092,23.63,110.6619,26.6,27.47,11.72,0,111.1,13.13,27.44,157.0
"2010-09-29 01:47:30",202116,3.035,194.2,0.756,0.049,23.65,110.6603,26.59,27.46,11.75,0,111.1,13.13,27.44,156.2